Regional Weather Roundup
Issued by NWS Cleveland, OH

Home | Current Version | Previous Version | Text Only | Print | Product List | Glossary Off
Versions: 1 2 3 4 5 6 7 8 9 10 11 12 13 14 15 16 17 18 19 20 21 22 23 24 25 26 27 28 29 30 31 32 33 34 35 36 37 38 39 40 41 42 43 44 45 46 47 48 49 50

579
ASUS41 KCLE 240900
RWRCLE
OHIO REGIONAL WEATHER ROUNDUP
NATIONAL WEATHER SERVICE WILMINGTON, OH
500 AM EDT SUN JUL 24 2016

NOTE: "FAIR" INDICATES FEW OR NO CLOUDS BELOW 12,000 FEET WITH NO
SIGNIFICANT WEATHER AND/OR OBSTRUCTIONS TO VISIBILITY.

OHZ001>008-015>018-024>027-034-035-043-044-241000-
   NORTHWEST OHIO

CITY           SKY/WX    TMP DP  RH WIND       PRES   REMARKS
DEFIANCE       FAIR      80  72  76 NW8       29.97F
FINDLAY        FAIR      75  69  81 W6        29.99R
TOLEDO EXPRESS FAIR      74  71  91 CALM      29.98R
TOLEDO EXEC    FAIR      76  68  76 CALM      29.99R
LIMA           MOCLDY    75  73  93 W5        30.01R
$$

OHZ009>014-019>023-028>033-038-089-241000-
   NORTHEAST OHIO

CITY           SKY/WX    TMP DP  RH WIND       PRES   REMARKS
CLE-HOPKINS    FAIR      73  60  63 CALM      30.01S
CLE-LAKEFRONT  FAIR      76  60  57 SE8       29.97F
CUY CO. ARPT   NOT AVBL
LORAIN-ELYRIA  FAIR      68  62  81 CALM      30.00S
ASHTABULA      FAIR      62  62 100 CALM      30.02S
AKRON-CANTON   FAIR      72  60  66 SE3       30.02S
WOOSTER        NOT AVBL
MANSFIELD      FAIR      74  67  78 S6        30.02F
YOUNGSTOWN     FAIR      62  59  90 CALM      30.02S
$$

OHZ042-051>053-060>062-070>072-077>081-241000-
  SOUTHWEST OHIO

CITY           SKY/WX    TMP DP  RH WIND       PRES   REMARKS
CINC-COVINGTON MOCLDY    75  73  93 CALM      29.99F
CINC-LUNKEN    FAIR      73  73 100 CALM      29.98F
HAMILTON       FAIR      72  70  93 CALM      29.99S
DAYTON         NOT AVBL
WRIGHT-PAT AFB MOCLDY    76  74  94 N2        30.00S
DAYTON GENERAL FAIR      75  70  84 CALM      30.00R
WILMINGTON     FAIR      74  72  93 CALM      30.00S
$$

OHZ036-037-039>041-045>050-054>059-063>069-073>076-082>088-241000-
  CENTRAL AND SOUTHEAST OHIO

CITY           SKY/WX    TMP DP  RH WIND       PRES   REMARKS
COLUMBUS       MOCLDY    75  72  90 CALM      29.99S
OSU AIRPORT    FAIR      75  72  90 S3        29.99S
BOLTON FIELD   NOT AVBL
RICKENBACK AFB NOT AVBL
NEWARK         FAIR      71  69  93 CALM      30.00S FOG
MARION         FAIR      73  71  93 S6        30.00S
LANCASTER      FAIR      70  69  97 CALM      30.01R FOG
ZANESVILLE     FAIR      74  70  87 CALM      30.00S
NEW PHILLY     MOCLDY    72  65  78 CALM      30.02S
$$




USA.gov is the U.S. government's official web portal to all federal, state and local government web resources and services.